KN4CI-1 Weather Reports


time (UTC)temp
C
wind
direction
speed
KPH
gust
KPH
rain 1hr
cm
rain 24hr
cm
rain mn
cm
humidity
%
barometer
mb
20260906063809 25 232 0.0 0.0 0.00 0.00 0.00 29 1013.6
20260906062809 25 232 0.0 0.0 0.00 0.00 0.00 29 1013.6
20260906060254 25 146 0.0 0.0 0.00 0.00 0.00 30 1013.6
20260906055750 25 169 0.0 0.0 0.00 0.00 0.00 30 1013.6
20260906055245 25 156 0.0 0.0 0.00 0.00 0.00 30 1012.6
20260906054746 25 154 0.0 0.0 0.00 0.00 0.00 30 1012.6
20260906053737 25 177 0.0 0.0 0.00 0.00 0.00 30 1012.6
20260906053237 25 116 0.0 0.0 0.00 0.00 0.00 30 1012.6
20260906052235 25 120 0.0 0.0 0.00 0.00 0.00 30 1012.6
20260906051735 25 120 0.0 0.0 0.00 0.00 0.00 30 1012.6
20260906051235 25 120 0.0 0.0 0.00 0.00 0.00 30 1012.6
20260906050731 25 120 0.0 0.0 0.00 0.00 0.00 30 1013.6
20260906050231 25 119 0.0 0.0 0.00 0.00 0.00 30 1013.6
20260906045227 25 120 0.0 0.0 0.00 0.00 0.00 30 1013.6
20260906044727 25 120 0.0 0.0 0.00 0.00 0.00 30 1013.6
20260906044227 25 119 0.0 0.0 0.00 0.00 0.00 30 1013.6
20260906043721 25 120 0.0 0.0 0.00 0.00 0.00 29 1013.6
20260906043221 25 119 0.0 0.0 0.00 0.00 0.00 29 1013.6
20260906042217 25 120 0.0 0.0 0.00 0.00 0.00 27 1012.6
20260906033156 26 103 0.0 0.0 0.00 0.00 0.00 25 1012.6
20260906032657 26 103 0.0 0.0 0.00 0.00 0.00 24 1012.6
20260906015632 26 338 0.0 0.0 0.00 0.00 0.00 20 1012.6
20260906013627 27 338 0.0 0.0 0.00 0.00 0.00 20 1011.6
20260906013127 27 337 0.0 0.0 0.00 0.00 0.00 20 1011.6
20260906011624 27 338 0.0 0.0 0.00 0.00 0.00 20 1011.6
20260906011125 27 337 0.0 0.0 0.00 0.00 0.00 19 1011.6
20260906010622 27 338 0.0 0.0 0.00 0.00 0.00 19 1011.6
20260906005623 27 337 0.0 0.0 0.00 0.00 0.00 19 1011.6
20260906004620 28 337 0.0 0.0 0.00 0.00 0.00 19 1011.6
20260906003617 28 337 0.0 0.0 0.00 0.00 0.00 19 1011.6
20260906002618 28 337 0.0 0.0 0.00 0.00 0.00 16 1011.6
20260906002115 28 338 0.0 0.0 0.00 0.00 0.00 16 1011.6
20260906000611 30 337 0.0 0.0 0.00 0.00 0.00 16 1011.6
20260906000112 30 337 0.0 0.0 0.00 0.00 0.00 13 1011.6
20260905235612 30 337 0.0 0.0 0.00 0.00 0.00 13 1011.6
20260905234109 30 337 0.0 0.0 0.00 0.00 0.00 13 1011.6
20260905232607 31 338 0.0 0.0 0.00 0.00 0.00 12 1011.6
20260905231604 32 337 0.0 0.0 0.00 0.00 0.00 12 1011.6
20260905220041 34 337 0.0 0.0 0.00 0.00 0.00 11 1011.6
20260905211027 35 337 0.0 0.0 0.00 0.00 0.00 11 1011.6
20260905205521 35 318 0.0 0.0 0.00 0.00 0.00 11 1012.6
20260905204518 35 64 0.0 0.0 0.00 0.00 0.00 11 1012.6
20260905203012 36 110 0.0 0.0 0.00 0.00 0.00 10 1012.6
20260905200001 36 59 0.0 0.0 0.00 0.00 0.00 10 1012.6
20260905193959 37 326 0.0 0.0 0.00 0.00 0.00 10 1013.6
20260905184448 36 341 0.0 0.0 0.00 0.00 0.00 11 1013.6
20260905183948 36 318 0.0 0.0 0.00 0.00 0.00 11 1013.6
20260905183443 35 166 0.0 0.0 0.00 0.00 0.00 11 1013.6
20260905181939 35 351 0.0 0.0 0.00 0.00 0.00 11 1014.6
20260905180938 35 37 0.0 0.0 0.00 0.00 0.00 11 1014.6
20260905173932 35 347 0.0 0.0 0.00 0.00 0.00 11 1014.6
20260905172430 34 9 0.0 0.0 0.00 0.00 0.00 11 1014.6
20260905135320 26 53 0.0 0.0 0.00 0.00 0.00 30 1015.6
20260905133815 26 53 0.0 0.0 0.00 0.00 0.00 31 1015.6
20260905124255 23 53 0.0 0.0 0.00 0.00 0.00 33 1015.6
20260905123755 23 53 0.0 0.0 0.00 0.00 0.00 33 1015.6
20260905122750 22 53 0.0 0.0 0.00 0.00 0.00 33 1015.6
20260905122251 22 53 0.0 0.0 0.00 0.00 0.00 33 1015.6
20260905121246 22 53 0.0 0.0 0.00 0.00 0.00 33 1015.6
20260905120746 22 53 0.0 0.0 0.00 0.00 0.00 33 1015.6
20260905115243 21 53 0.0 0.0 0.00 0.00 0.00 33 1015.6
20260905111218 21 53 0.0 0.0 0.00 0.00 0.00 33 1014.6
20260905105213 21 53 0.0 0.0 0.00 0.00 0.00 32 1014.6
20260905101654 22 53 0.0 0.0 0.00 0.00 0.00 32 1014.6
20260905095653 22 53 0.0 0.0 0.00 0.00 0.00 32 1014.6
20260905095153 22 53 0.0 0.0 0.00 0.00 0.00 32 1014.6
20260905094152 22 53 0.0 0.0 0.00 0.00 0.00 32 1014.6
20260905092647 22 53 0.0 0.0 0.00 0.00 0.00 32 1014.6
20260905092147 22 53 0.0 0.0 0.00 0.00 0.00 32 1014.6
20260905091143 22 53 0.0 0.0 0.00 0.00 0.00 32 1014.6
20260905085141 22 53 0.0 0.0 0.00 0.00 0.00 32 1014.6
20260905084139 22 53 0.0 0.0 0.00 0.00 0.00 32 1014.6
20260905083638 22 53 0.0 0.0 0.00 0.00 0.00 32 1014.6
20260905083129 22 53 0.0 0.0 0.00 0.00 0.00 32 1014.6
20260905082630 22 53 0.0 0.0 0.00 0.00 0.00 32 1014.6
20260905081622 22 53 0.0 0.0 0.00 0.00 0.00 31 1014.6
20260905081304 22 53 0.0 0.0 0.00 0.00 0.00 31 1014.6
20260905081123 22 53 0.0 0.0 0.00 0.00 0.00 31 1014.6
20260905075621 22 53 0.0 0.0 0.00 0.00 0.00 31 1014.6
20260905075121 22 53 0.0 0.0 0.00 0.00 0.00 31 1014.6
20260905074617 22 53 0.0 0.0 0.00 0.00 0.00 31 1014.6
20260905074117 22 53 0.0 0.0 0.00 0.00 0.00 31 1014.6
20260905073617 22 53 0.0 0.0 0.00 0.00 0.00 31 1014.6
20260905073113 22 53 0.0 0.0 0.00 0.00 0.00 31 1014.6
20260905072613 22 53 0.0 0.0 0.00 0.00 0.00 31 1014.6
20260905071606 22 53 0.0 0.0 0.00 0.00 0.00 31 1014.6
20260905071104 22 53 0.0 0.0 0.00 0.00 0.00 31 1014.6
20260905070604 22 53 0.0 0.0 0.00 0.00 0.00 31 1014.6
20260905070100 22 53 0.0 0.0 0.00 0.00 0.00 31 1014.6
20260905065100 22 53 0.0 0.0 0.00 0.00 0.00 31 1014.6